| time (UTC) | temp F | wind direction | speed MPH | gust MPH | rain 1hr in | rain 24hr in | rain mn in | humidity % | barometer mb |
| 20260507064513 | 0 | 265 | 5.0 | 12.0 | 0.00 | 0.02 | 0.00 | 1011.8 | |
| 20260507063016 | 0 | 260 | 8.0 | 14.0 | 0.00 | 0.02 | 0.00 | 1011.8 | |
| 20260507061504 | 0 | 272 | 4.0 | 13.0 | 0.00 | 0.02 | 0.00 | 1011.9 | |
| 20260507060105 | 0 | 282 | 5.0 | 11.0 | 0.00 | 0.02 | 0.00 | 1011.9 | |
| 20260507054637 | 0 | 261 | 2.0 | 9.0 | 0.00 | 0.02 | 0.00 | 1011.7 | |
| 20260507053053 | 0 | 260 | 2.0 | 8.0 | 0.00 | 0.02 | 0.00 | 1011.7 | |
| 20260507051547 | 0 | 259 | 2.0 | 9.0 | 0.00 | 0.02 | 0.00 | 1011.4 | |
| 20260507050042 | 0 | 276 | 0.0 | 6.0 | 0.00 | 0.02 | 0.00 | 1011.2 | |
| 20260507044546 | 0 | 270 | 1.0 | 6.0 | 0.00 | 0.02 | 0.00 | 1011.0 | |
| 20260507043033 | 0 | 271 | 0.0 | 9.0 | 0.00 | 0.02 | 0.00 | 1010.7 | |
| 20260507041529 | 0 | 274 | 1.0 | 7.0 | 0.00 | 0.02 | 0.00 | 1010.6 | |
| 20260507040027 | 0 | 276 | 4.0 | 9.0 | 0.00 | 0.02 | 0.00 | 1010.5 | |
| 20260507034520 | 0 | 277 | 3.0 | 8.0 | 0.00 | 0.02 | 0.00 | 1010.5 | |
| 20260507033021 | 0 | 279 | 2.0 | 8.0 | 0.00 | 0.02 | 0.00 | 1010.3 | |
| 20260507031511 | 0 | 277 | 2.0 | 8.0 | 0.00 | 0.02 | 0.00 | 1010.2 | |
| 20260507030007 | 0 | 278 | 0.0 | 4.0 | 0.00 | 0.02 | 0.00 | 1010.1 | |
| 20260507024503 | 0 | 277 | 2.0 | 8.0 | 0.00 | 0.02 | 0.00 | 1010.1 | |
| 20260507023106 | 0 | 279 | 3.0 | 8.0 | 0.00 | 0.02 | 0.00 | 1010.0 | |
| 20260507021554 | 0 | 257 | 1.0 | 7.0 | 0.00 | 0.02 | 0.00 | 1010.0 | |
| 20260507020055 | 0 | 260 | 1.0 | 9.0 | 0.00 | 0.02 | 0.00 | 1010.0 | |
| 20260507014551 | 0 | 269 | 3.0 | 9.0 | 0.00 | 0.02 | 0.00 | 1009.9 | |
| 20260507013044 | 0 | 277 | 2.0 | 8.0 | 0.00 | 0.02 | 0.00 | 1009.7 | |
| 20260507011538 | 0 | 265 | 0.0 | 3.0 | 0.00 | 0.02 | 0.00 | 1009.7 | |
| 20260507010034 | 0 | 266 | 1.0 | 8.0 | 0.00 | 0.02 | 0.00 | 1009.7 | |
| 20260507004527 | 0 | 273 | 2.0 | 13.0 | 0.00 | 0.02 | 0.00 | 1009.7 | |
| 20260507003022 | 0 | 267 | 3.0 | 11.0 | 0.00 | 0.02 | 0.00 | 1009.6 | |
| 20260507001524 | 0 | 266 | 4.0 | 10.0 | 0.00 | 0.02 | 0.00 | 1009.5 | |
| 20260507000016 | 0 | 269 | 4.0 | 10.0 | 0.00 | 0.02 | 0.00 | 1009.6 | |
| 20260506234513 | 0 | 260 | 2.0 | 8.0 | 0.00 | 0.02 | 0.00 | 1009.5 | |
| 20260506233005 | 0 | 261 | 3.0 | 8.0 | 0.00 | 0.02 | 0.00 | 1009.4 | |
| 20260506231501 | 0 | 270 | 5.0 | 12.0 | 0.00 | 0.02 | 0.00 | 1009.3 | |
| 20260506230056 | 0 | 271 | 3.0 | 9.0 | 0.00 | 0.02 | 0.00 | 1009.2 | |
| 20260506224552 | 0 | 255 | 3.0 | 10.0 | 0.00 | 0.02 | 0.00 | 1009.0 | |
| 20260506223047 | 0 | 244 | 3.0 | 10.0 | 0.00 | 0.02 | 0.00 | 1009.0 | |
| 20260506221543 | 0 | 280 | 5.0 | 11.0 | 0.00 | 0.02 | 0.00 | 1008.7 | |
| 20260506220039 | 0 | 254 | 1.0 | 7.0 | 0.00 | 0.02 | 0.00 | 1008.7 | |
| 20260506214536 | 0 | 266 | 3.0 | 11.0 | 0.00 | 0.02 | 0.02 | 1008.4 | |
| 20260506213031 | 0 | 244 | 3.0 | 11.0 | 0.00 | 0.02 | 0.02 | 1008.2 | |
| 20260506211526 | 0 | 265 | 5.0 | 15.0 | 0.00 | 0.02 | 0.02 | 1008.1 | |
| 20260506210021 | 0 | 263 | 7.0 | 17.0 | 0.00 | 0.02 | 0.02 | 1007.7 | |
| 20260506204523 | 0 | 298 | 9.0 | 20.0 | 0.00 | 0.02 | 0.02 | 1007.5 | |
| 20260506203012 | 0 | 263 | 9.0 | 20.0 | 0.00 | 0.02 | 0.02 | 1007.1 | |
| 20260506201509 | 0 | 253 | 7.0 | 29.0 | 0.01 | 0.02 | 0.02 | 1007.1 | |
| 20260506200004 | 0 | 255 | 5.0 | 15.0 | 0.02 | 0.02 | 0.02 | 1006.7 | |
| 20260506194634 | 0 | 243 | 4.0 | 13.0 | 0.02 | 0.02 | 0.02 | 1006.4 | |
| 20260506193104 | 0 | 269 | 2.0 | 11.0 | 0.02 | 0.02 | 0.02 | 1006.0 | |
| 20260506191551 | 0 | 277 | 5.0 | 16.0 | 0.01 | 0.02 | 0.01 | 1005.7 | |
| 20260506190050 | 0 | 257 | 8.0 | 20.0 | 0.00 | 0.01 | 0.00 | 1005.4 | |
| 20260506184542 | 0 | 248 | 9.0 | 16.0 | 0.00 | 0.10 | 0.00 | 1004.8 | |
| 20260506183037 | 0 | 294 | 6.0 | 22.0 | 0.00 | 0.10 | 0.00 | 1003.7 | |
| 20260506181533 | 0 | 310 | 10.0 | 17.0 | 0.00 | 0.10 | 0.00 | 1003.0 | |
| 20260506180034 | 0 | 299 | 12.0 | 26.0 | 0.00 | 0.10 | 0.00 | 1003.0 | |
| 20260506174525 | 0 | 244 | 7.0 | 31.0 | 0.00 | 0.10 | 0.00 | 1002.5 | |
| 20260506173019 | 0 | 261 | 3.0 | 11.0 | 0.00 | 0.10 | 0.00 | 1001.2 | |
| 20260506171515 | 0 | 130 | 1.0 | 8.0 | 0.00 | 0.10 | 0.00 | 1000.1 | |
| 20260506170011 | 0 | 155 | 5.0 | 11.0 | 0.00 | 0.10 | 0.00 | 999.7 | |
| 20260506164506 | 0 | 145 | 5.0 | 17.0 | 0.00 | 0.10 | 0.00 | 999.5 | |
| 20260506163002 | 0 | 135 | 4.0 | 14.0 | 0.00 | 0.10 | 0.00 | 1000.0 | |
| 20260506161611 | 0 | 130 | 2.0 | 13.0 | 0.00 | 0.10 | 0.00 | 1000.3 | |
| 20260506160054 | 0 | 129 | 2.0 | 10.0 | 0.00 | 0.10 | 0.00 | 1000.3 | |
| 20260506154607 | 0 | 99 | 7.0 | 12.0 | 0.00 | 0.10 | 0.00 | 1000.6 | |
| 20260506153051 | 0 | 104 | 2.0 | 15.0 | 0.00 | 0.10 | 0.00 | 1000.8 | |
| 20260506151539 | 0 | 108 | 4.0 | 12.0 | 0.00 | 0.10 | 0.00 | 1001.0 | |
| 20260506150035 | 0 | 88 | 6.0 | 11.0 | 0.00 | 0.10 | 0.00 | 1001.2 | |
| 20260506144530 | 0 | 92 | 3.0 | 10.0 | 0.00 | 0.10 | 0.00 | 1001.3 | |
| 20260506143033 | 0 | 73 | 5.0 | 11.0 | 0.00 | 0.10 | 0.00 | 1001.4 | |
| 20260506141521 | 0 | 61 | 3.0 | 8.0 | 0.00 | 0.10 | 0.00 | 1001.6 | |
| 20260506140017 | 0 | 93 | 4.0 | 9.0 | 0.00 | 0.10 | 0.00 | 1001.8 | |
| 20260506134513 | 0 | 51 | 0.0 | 6.0 | 0.00 | 0.10 | 0.00 | 1002.1 | |
| 20260506133008 | 0 | 96 | 4.0 | 8.0 | 0.00 | 0.10 | 0.00 | 1002.3 | |
| 20260506131503 | 0 | 84 | 2.0 | 10.0 | 0.00 | 0.10 | 0.00 | 1002.5 | |
| 20260506124555 | 0 | 59 | 3.0 | 5.0 | 0.00 | 0.10 | 0.00 | 1003.0 | |
| 20260506123051 | 0 | 76 | 6.0 | 12.0 | 0.00 | 0.10 | 0.00 | 1003.2 | |
| 20260506121546 | 0 | 68 | 2.0 | 8.0 | 0.00 | 0.10 | 0.00 | 1003.5 | |
| 20260506120041 | 0 | 92 | 4.0 | 11.0 | 0.00 | 0.10 | 0.00 | 1003.7 | |
| 20260506114543 | 0 | 76 | 1.0 | 6.0 | 0.00 | 0.10 | 0.00 | 1004.1 | |
| 20260506113032 | 0 | 121 | 6.0 | 13.0 | 0.00 | 0.10 | 0.00 | 1004.2 | |
| 20260506111535 | 0 | 59 | 1.0 | 12.0 | 0.00 | 0.10 | 0.00 | 1004.6 | |
| 20260506110023 | 0 | 65 | 1.0 | 5.0 | 0.00 | 0.10 | 0.00 | 1004.7 | |
| 20260506104519 | 0 | 64 | 1.0 | 8.0 | 0.00 | 0.10 | 0.00 | 1004.9 | |
| 20260506103015 | 0 | 54 | 2.0 | 7.0 | 0.00 | 0.10 | 0.00 | 1005.2 | |
| 20260506101510 | 0 | 71 | 2.0 | 9.0 | 0.00 | 0.10 | 0.00 | 1005.4 | |
| 20260506100008 | 0 | 67 | 0.0 | 5.0 | 0.00 | 0.10 | 0.00 | 1005.8 | |
| 20260506094503 | 0 | 69 | 2.0 | 5.0 | 0.00 | 0.10 | 0.00 | 1005.8 | |
| 20260506093101 | 0 | 67 | 0.0 | 5.0 | 0.00 | 0.10 | 0.00 | 1005.9 | |
| 20260506091555 | 0 | 95 | 3.0 | 6.0 | 0.00 | 0.10 | 0.00 | 1005.9 | |
| 20260506090050 | 0 | 71 | 0.0 | 6.0 | 0.00 | 0.10 | 0.00 | 1005.9 | |
| 20260506084547 | 0 | 71 | 1.0 | 6.0 | 0.00 | 0.10 | 0.00 | 1006.1 | |
| 20260506083042 | 0 | 84 | 1.0 | 3.0 | 0.00 | 0.10 | 0.00 | 1006.2 | |
| 20260506081538 | 0 | 83 | 0.0 | 4.0 | 0.00 | 0.10 | 0.00 | 1006.3 | |
| 20260506073025 | 0 | 76 | 2.0 | 5.0 | 0.00 | 0.10 | 0.00 | 1006.6 | |
| 20260506071528 | 0 | 100 | 1.0 | 3.0 | 0.00 | 0.10 | 0.00 | 1006.7 |